Content
SEND FEEDBACK

Daily
Averages
Monthly
Summary
United States of America

TUCSON, ARIZONA


Home > North America > United States > Arizona
Elevation: 2584 feet     Latitude: 32 08N     Longitude: 110 56W

WEATHER
 
SELECT A DAY
Number of Records: 106,816;   Date Range: 1/1/02 - 8/12/14
 
SHARE

PRINT THIS DATA

[ ← Previous Day ]
WEATHER ALMANAC - JANUARY 18, 2013
[ Next Day → ]
[ °C ]   °F
Weather ElementAverageHighLow
Temperature55.9 °F73.9 °F (2:53 pm)42.1 °F (5:53 am)
Dewpoint15.2 °F21 °F (7:53 pm)5 °F (4:53 pm)
Humidity22.9 %35 % (5:53 am)7 % (3:53 pm)
Barometer30.13 in30.20 in (9:53 am)30.04 in (3:53 pm)
Wind Speed6.2 mph12.7 mph (10:53 am)
Weather ElementAverage
Visibility10 mi
Wind DirectionESE (123 °)

Weather ElementTotal
Precipitation---
Heating Degree Days7 (Base 65)
Growing Degree Days8 (Base 50)
Averaged from 23 records on January 18, 2013
WEATHER CONDITIONS BREAKOUT
WIND DIRECTION BREAKOUT
WEATHER BY HOUR - JANUARY 18, 2013
[ °C ]   °F
Local TimeTemperatureDewpointHumidityBarometerVisibilityWind DirectionWind SpeedGust SpeedPrecipitationEventsConditions
1:53 AM51.1 °F15.1 °F24 %30.15 in10.0 miESE (110°)9.2 mphClear
2:53 AM50.0 °F15.1 °F25 %30.14 in10.0 miESE (110°)9.2 mphClear
3:53 AM43.0 °F16.0 °F34 %30.15 in10.0 miSE (140°)5.8 mphClear
4:53 AM43.0 °F15.1 °F32 %30.14 in10.0 miSE (130°)3.5 mphClear
5:53 AM42.1 °F16.0 °F35 %30.16 in10.0 miSE (130°)9.2 mphClear
6:53 AM42.1 °F15.1 °F34 %30.17 in10.0 miESE (120°)4.6 mphClear
7:53 AM46.0 °F15.1 °F29 %30.17 in10.0 miESE (110°)4.6 mphClear
8:53 AM48.9 °F17.1 °F28 %30.19 in10.0 miSSE (160°)5.8 mphClear
9:53 AM55.9 °F16.0 °F21 %30.20 in10.0 miSSE (150°)11.5 mphClear
10:53 AM62.1 °F16.0 °F17 %30.18 in10.0 miESE (120°)12.7 mphClear
11:53 AM66.9 °F15.1 °F14 %30.14 in10.0 miESE (120°)12.7 mphClear
12:53 PM69.1 °F15.1 °F13 %30.09 in10.0 miSE (130°)10.4 mphClear
1:53 PM72.0 °F12.9 °F10 %30.06 in10.0 miSE (140°)6.9 mphClear
2:53 PM73.9 °F8.1 °F8 %30.05 in10.0 miCalmClear
3:53 PM73.9 °F6.1 °F7 %30.04 in10.0 miCalmClear
4:53 PM73.0 °F5.0 °F7 %30.05 in10.0 miCalmClear
5:53 PM66.0 °F14.0 °F13 %30.08 in10.0 miNW (320°)5.8 mphClear
6:53 PM60.1 °F18.0 °F20 %30.11 in10.0 miCalmClear
7:53 PM55.9 °F21.0 °F26 %30.12 in10.0 miWSW (240°)3.5 mphClear
8:53 PM50.0 °F21.0 °F32 %30.13 in10.0 miSSE (150°)6.9 mphClear
9:53 PM51.1 °F19.9 °F29 %30.12 in10.0 miSE (130°)8.1 mphClear
10:53 PM46.0 °F19.0 °F34 %30.12 in10.0 miSSE (160°)5.8 mphClear
11:53 PM44.1 °F18.0 °F35 %30.12 in10.0 miSSE (160°)6.9 mphClear
Hourly data recorded from KTUS, located miles away from Tucson, Arizona







STORIES FROM OUR PARTNERS